Weather History for Fort Indiantown Gap, PA

Change the Weather History Date:

Thursday, February 20, 2014

  Actual Average Record
Temperature  
Mean Temperature 34 °F -  
Max Temperature 45 °F 41 °F 59 °F (2002)
Min Temperature 22 °F 26 °F 17 °F (2007)
Degree Days  
Heating Degree Days 32    
Moisture  
Dew Point 28 °F    
Average Humidity 75    
Maximum Humidity 100    
Minimum Humidity 44    
Precipitation  
Precipitation 0.00 in - - ()
Sea Level Pressure  
Sea Level Pressure 30.15 in    
Wind  
Wind Speed 3 mph (NE)    
Max Wind Speed 6 mph    
Max Gust Speed -    
Visibility 10 miles    
Events      
Averages and records for this station are not official NWS values.
T = Trace of Precipitation, MM = Missing Value Source: NWS Daily Summary

Daily Weather History Graph

Daily Weather History Graph

Search for Another Location

Airport:

Trip Planner

Search our weather history database for the weather conditions in past years. The results will help you decide how hot, cold, wet, or windy it might be!

Date:

Astronomy

Feb. 20, 2014 Rise Set
Actual Time 6:53 AM EST 5:47 PM EST
Civil Twilight 6:25 AM EST 6:15 PM EST
Nautical Twilight 5:53 AM EST 6:46 PM EST
Astronomical Twilight 5:22 AM EST 7:18 PM EST
Moon 11:40 PM EST 9:33 AM EST
Length of Visible Light 11h 49m
Length of Day
10h 54m
Waning Gibbous, 71% of the Moon is Illuminated
Feb 20
Waning Gibbous
Feb 22
Last Quarter
Mar 1
New
Mar 8
First Quarter
Mar 16
Full

Hourly Weather History & Observations

Time (EST) Temp. Windchill Dew Point Humidity Pressure Visibility Wind Dir Wind Speed Gust Speed Precip Events Conditions
12:58 AM 37.4 °F 32.8 °F 28.4 °F 70% 30.15 in 10.0 mi West 5.8 mph - N/A   Clear
1:58 AM 35.4 °F 31.5 °F 28.9 °F 77% 30.18 in 10.0 mi West 4.6 mph - N/A   Clear
2:58 AM 32.2 °F 27.7 °F 30.4 °F 93% 30.19 in 10.0 mi West 4.6 mph - N/A   Clear
3:58 AM 27.9 °F - 27.5 °F 99% 30.19 in 10.0 mi Calm Calm - N/A   Clear
4:58 AM 27.5 °F - 27.3 °F 99% 30.22 in 10.0 mi Variable 2.3 mph - N/A   Clear
5:58 AM 25.5 °F - 25.5 °F 100% 30.23 in 10.0 mi Calm Calm - N/A   Clear
6:58 AM 22.3 °F - 22.3 °F 100% 30.24 in 10.0 mi NNE 2.3 mph - N/A   Clear
7:58 AM 23.7 °F - 23.7 °F 100% 30.27 in 10.0 mi Calm Calm - N/A   Clear
8:58 AM 30.4 °F - 29.7 °F 97% 30.26 in 10.0 mi ENE 2.3 mph - N/A   Clear
9:58 AM 34.7 °F - 31.1 °F 87% 30.25 in 10.0 mi Calm Calm - N/A   Clear
10:58 AM 40.6 °F 38.6 °F 28.9 °F 63% 30.23 in 10.0 mi NE 3.5 mph - N/A   Partly Cloudy
11:58 AM 42.6 °F 40.9 °F 30.6 °F 62% 30.21 in 10.0 mi NE 3.5 mph - N/A   Clear
12:58 PM 44.4 °F 42.0 °F 30.0 °F 57% 30.16 in 10.0 mi NE 4.6 mph - N/A   Clear
1:58 PM 45.0 °F 42.6 °F 25.5 °F 47% 30.14 in 10.0 mi SSE 4.6 mph - N/A   Scattered Clouds
2:58 PM 45.0 °F 41.8 °F 23.9 °F 44% 30.12 in 10.0 mi ESE 5.8 mph - N/A   Mostly Cloudy
3:58 PM 44.2 °F 42.7 °F 24.8 °F 46% 30.11 in 10.0 mi East 3.5 mph - N/A   Overcast
4:58 PM 41.5 °F - 27.1 °F 57% 30.10 in 10.0 mi NE 1.2 mph - N/A   Overcast
5:58 PM 40.8 °F - 27.9 °F 60% 30.09 in 10.0 mi North 2.3 mph - N/A   Overcast
6:58 PM 40.1 °F - 28.9 °F 64% 30.09 in 10.0 mi NNE 2.3 mph - N/A   Overcast
7:58 PM 38.8 °F 36.5 °F 30.2 °F 71% 30.08 in 10.0 mi NE 3.5 mph - N/A   Overcast
8:58 PM 37.9 °F - 28.8 °F 70% 30.04 in 10.0 mi NNE 2.3 mph - N/A   Clear
9:58 PM 38.1 °F 35.7 °F 29.3 °F 71% 30.02 in 10.0 mi NNE 3.5 mph - N/A   Mostly Cloudy
10:58 PM 37.0 °F 34.5 °F 31.8 °F 81% 30.00 in 10.0 mi NE 3.5 mph - N/A   Clear
11:58 PM 36.5 °F 33.9 °F 34.2 °F 91% 29.97 in 10.0 mi NNE 3.5 mph - N/A   Scattered Clouds